DW9945 Weather Reports


time (UTC)temp
F
wind
direction
speed
knots
gust
knots
rain 1hr
in
rain 24hr
in
rain mn
in
humidity
%
barometer
mb
20260831064019 67 19 2.6 4.3 0.00 0.00 0.00 48 1017.1
20260831063019 66 29 3.5 7.0 0.00 0.00 0.00 49 1017.0
20260831062519 66 30 4.3 7.0 0.00 0.00 0.00 50 1017.0
20260831062019 64 12 4.3 7.0 0.00 0.00 0.00 51 1017.0
20260831061508 64 17 4.3 6.1 0.00 0.00 0.00 52 1017.0
20260831061018 64 11 2.6 6.1 0.00 0.00 0.00 52 1016.9
20260831060518 64 11 2.6 6.1 0.00 0.00 0.00 51 1016.9
20260831055519 64 27 2.6 5.2 0.00 0.00 0.00 51 1017.0
20260831055019 64 25 2.6 5.2 0.00 0.00 0.00 52 1017.0
20260831054519 63 30 2.6 4.3 0.00 0.00 0.00 53 1016.9
20260831054019 63 21 2.6 4.3 0.00 0.00 0.00 53 1016.8
20260831053519 63 5 2.6 4.3 0.00 0.00 0.00 53 1016.8
20260831052518 64 27 0.0 2.6 0.00 0.00 0.00 51 1016.8
20260831052019 64 27 1.7 2.6 0.00 0.00 0.00 51 1016.8
20260831051519 64 22 2.6 4.3 0.00 0.00 0.00 51 1016.9
20260831051008 64 12 0.9 2.6 0.00 0.00 0.00 52 1016.9
20260831050519 64 12 0.0 0.0 0.00 0.00 0.00 51 1016.8
20260831050019 66 16 0.0 1.7 0.00 0.00 0.00 50 1016.7
20260831045519 66 15 0.9 2.6 0.00 0.00 0.00 50 1016.7
20260831045019 66 25 2.6 5.2 0.00 0.00 0.00 50 1016.7
20260831044519 65 29 2.6 4.3 0.00 0.00 0.00 51 1016.7
20260831044018 65 37 2.6 4.3 0.00 0.00 0.00 52 1016.6
20260831043519 65 16 2.6 2.6 0.00 0.00 0.00 51 1016.6
20260831043018 66 352 2.6 2.6 0.00 0.00 0.00 50 1016.6
20260831042019 67 26 2.6 5.2 0.00 0.00 0.00 50 1016.4
20260831041507 66 42 2.6 7.8 0.00 0.00 0.00 51 1016.4
20260831041019 65 20 2.6 4.3 0.00 0.00 0.00 52 1016.4
20260831040519 65 20 2.6 4.3 0.00 0.00 0.00 52 1016.5
20260831040008 66 13 2.6 4.3 0.00 0.00 0.00 51 1016.6
20260831035518 66 0 2.6 4.3 0.00 0.00 0.00 50 1016.5
20260831035008 67 14 1.7 4.3 0.00 0.00 0.00 49 1016.5
20260831034508 68 16 2.6 4.3 0.00 0.00 0.00 49 1016.4
20260831034018 68 25 2.6 4.3 0.00 0.00 0.00 49 1016.3
20260831033519 67 29 2.6 4.3 0.00 0.00 0.00 50 1016.2
20260831033019 67 25 2.6 6.1 0.00 0.00 0.00 50 1016.2
20260831032508 67 31 2.6 6.1 0.00 0.00 0.00 52 1016.2
20260831032018 66 16 2.6 4.3 0.00 0.00 0.00 52 1016.2
20260831031508 66 6 2.6 4.3 0.00 0.00 0.00 51 1016.3
20260831031019 67 5 2.6 2.6 0.00 0.00 0.00 51 1016.3
20260831030518 67 5 2.6 2.6 0.00 0.00 0.00 50 1016.3
20260831030019 68 6 2.6 2.6 0.00 0.00 0.00 49 1016.3
20260831025518 68 19 2.6 4.3 0.00 0.00 0.00 49 1016.3
20260831025019 68 32 2.6 4.3 0.00 0.00 0.00 49 1016.2
20260831024018 68 8 2.6 5.2 0.00 0.00 0.00 50 1016.2
20260831023519 68 15 2.6 4.3 0.00 0.00 0.00 50 1016.3
20260831023019 68 0 1.7 4.3 0.00 0.00 0.00 50 1016.1
20260831022518 68 2 2.6 4.3 0.00 0.00 0.00 50 1016.1
20260831021518 67 25 1.7 4.3 0.00 0.00 0.00 51 1016.0
20260831021019 67 9 2.6 6.1 0.00 0.00 0.00 52 1016.0
20260831020518 67 0 1.7 4.3 0.00 0.00 0.00 52 1016.0
20260831020024 67 349 2.6 4.3 0.00 0.00 0.00 52 1016.1
20260831014519 68 353 2.6 4.3 0.00 0.00 0.00 51 1016.1
20260831013518 69 17 0.0 2.6 0.00 0.00 0.00 50 1016.1
20260831012519 69 19 1.7 2.6 0.00 0.00 0.00 49 1016.1
20260831011518 70 14 1.7 4.3 0.00 0.00 0.00 48 1016.1
20260831011008 71 26 2.6 4.3 0.00 0.00 0.00 47 1016.1
20260831010008 70 341 5.2 7.0 0.00 0.00 0.00 48 1016.2
20260831005508 70 326 2.6 4.3 0.00 0.00 0.00 48 1016.1
20260831005007 70 342 2.6 4.3 0.00 0.00 0.00 47 1016.1
20260831004507 71 334 3.5 4.3 0.00 0.00 0.00 47 1016.1
20260831004008 71 331 2.6 4.3 0.00 0.00 0.00 46 1016.1
20260831003507 72 349 2.6 4.3 0.00 0.00 0.00 45 1016.1
20260831003008 72 346 4.3 5.2 0.00 0.00 0.00 46 1016.1
20260831002508 71 334 6.1 7.8 0.00 0.00 0.00 47 1016.0
20260831002007 71 340 4.3 7.0 0.00 0.00 0.00 47 1015.9
20260831001508 71 356 2.6 4.3 0.00 0.00 0.00 47 1015.9
20260831000508 70 20 2.6 4.3 0.00 0.00 0.00 47 1016.0
20260830235509 70 6 1.7 2.6 0.00 0.00 0.00 47 1016.0
20260830234508 70 342 0.0 0.0 0.00 0.00 0.00 47 1016.0
20260830234007 71 342 0.0 0.0 0.00 0.00 0.00 46 1016.0
20260830233508 71 42 0.0 0.0 0.00 0.00 0.00 46 1016.1
20260830233007 72 42 0.0 0.0 0.00 0.00 0.00 45 1016.1
20260830232507 72 31 0.0 0.0 0.00 0.00 0.00 45 1016.1
20260830231508 73 18 2.6 7.0 0.00 0.00 0.00 44 1016.1
20260830230507 72 21 4.3 7.0 0.00 0.00 0.00 45 1016.0
20260830230008 72 350 5.2 7.0 0.00 0.00 0.00 44 1015.9
20260830225507 73 4 2.6 6.1 0.00 0.00 0.00 44 1015.8
20260830225007 73 32 4.3 7.0 0.00 0.00 0.00 44 1015.8
20260830224508 73 17 4.3 6.1 0.00 0.00 0.00 43 1015.8
20260830224007 74 0 2.6 5.2 0.00 0.00 0.00 43 1015.8
20260830223507 74 38 2.6 7.0 0.00 0.00 0.00 43 1015.8
20260830223008 74 15 1.7 4.3 0.00 0.00 0.00 43 1015.8
20260830222007 74 15 2.6 4.3 0.00 0.00 0.00 42 1015.8
20260830221007 75 45 2.6 5.2 0.00 0.00 0.00 42 1015.9
20260830220507 75 38 2.6 5.2 0.00 0.00 0.00 42 1015.9
20260830220008 75 51 1.7 4.3 0.00 0.00 0.00 42 1015.8
20260830215007 75 32 2.6 4.3 0.00 0.00 0.00 42 1015.7
20260830213508 75 23 0.9 2.6 0.00 0.00 0.00 42 1015.7
20260830213007 76 23 1.7 2.6 0.00 0.00 0.00 42 1015.7
20260830212007 76 23 0.9 2.6 0.00 0.00 0.00 41 1015.6
20260830211507 76 23 1.7 2.6 0.00 0.00 0.00 41 1015.5
20260830210008 78 338 2.6 4.3 0.00 0.00 0.00 38 1015.5
20260830204507 76 313 5.2 7.8 0.00 0.00 0.00 35 1015.5
20260830204006 77 334 2.6 2.6 0.00 0.00 0.00 32 1015.4
20260830203508 78 268 0.0 0.0 0.00 0.00 0.00 31 1015.3
20260830203008 79 232 0.0 2.6 0.00 0.00 0.00 30 1015.2
20260830202507 80 239 0.0 1.7 0.00 0.00 0.00 30 1015.1
20260830202007 80 236 1.7 2.6 0.00 0.00 0.00 30 1015.1
20260830201007 81 246 1.7 4.3 0.00 0.00 0.00 30 1015.2
20260830200508 81 230 2.6 4.3 0.00 0.00 0.00 29 1015.1
20260830195007 82 251 1.7 4.3 0.00 0.00 0.00 29 1014.9
20260830194507 82 238 3.5 6.1 0.00 0.00 0.00 28 1014.8
20260830194007 82 237 4.3 7.0 0.00 0.00 0.00 28 1014.8
20260830193507 82 230 3.5 7.8 0.00 0.00 0.00 28 1014.7
20260830193008 83 243 4.3 7.8 0.00 0.00 0.00 28 1014.6
20260830192007 83 243 4.3 7.0 0.00 0.00 0.00 27 1014.5
20260830191507 83 241 4.3 7.8 0.00 0.00 0.00 27 1014.5
20260830191007 84 245 4.3 7.8 0.00 0.00 0.00 27 1014.4
20260830190507 84 244 5.2 8.7 0.00 0.00 0.00 27 1014.4
20260830190007 84 237 3.5 7.0 0.00 0.00 0.00 27 1014.4
20260830184507 85 244 4.3 7.0 0.00 0.00 0.00 26 1014.1
20260830184007 85 241 3.5 8.7 0.00 0.00 0.00 26 1014.1
20260830183507 85 237 5.2 8.7 0.00 0.00 0.00 25 1014.1
20260830183006 86 227 5.2 11.3 0.00 0.00 0.00 25 1014.0
20260830182507 86 245 6.1 10.4 0.00 0.00 0.00 25 1014.0
20260830182006 86 242 5.2 10.4 0.00 0.00 0.00 25 1013.9
20260830180511 87 243 5.2 10.4 0.00 0.00 0.00 24 1013.9
20260830180007 87 254 5.2 10.4 0.00 0.00 0.00 25 1013.9
20260830175507 87 250 6.1 13.0 0.00 0.00 0.00 24 1013.9
20260830175007 87 229 7.8 11.3 0.00 0.00 0.00 24 1014.0
20260830174507 87 222 7.8 12.2 0.00 0.00 0.00 24 1013.9
20260830173007 88 236 7.8 14.8 0.00 0.00 0.00 24 1013.9
20260830172507 88 234 6.1 11.3 0.00 0.00 0.00 23 1013.9
20260830172007 88 241 6.1 13.9 0.00 0.00 0.00 24 1013.9
20260830171507 88 235 7.8 17.4 0.00 0.00 0.00 24 1013.9
20260830170007 88 209 7.8 12.2 0.00 0.00 0.00 23 1013.9
20260830165507 88 222 6.1 12.2 0.00 0.00 0.00 24 1013.9
20260830165007 88 236 8.7 17.4 0.00 0.00 0.00 23 1014.0
20260830164507 88 236 7.8 11.3 0.00 0.00 0.00 23 1013.9
20260830164006 88 229 6.1 12.2 0.00 0.00 0.00 23 1014.0
20260830163506 88 217 6.1 12.2 0.00 0.00 0.00 24 1013.9
20260830163007 88 214 7.0 13.9 0.00 0.00 0.00 23 1014.0
20260830162507 88 242 10.4 17.4 0.00 0.00 0.00 24 1014.0
20260830162007 88 236 11.3 17.4 0.00 0.00 0.00 24 1014.0
20260830161507 88 191 6.1 15.6 0.00 0.00 0.00 24 1014.0
20260830161007 88 206 8.7 15.6 0.00 0.00 0.00 24 1014.0
20260830160506 88 251 7.8 13.9 0.00 0.00 0.00 24 1014.1
20260830160007 88 225 7.8 17.4 0.00 0.00 0.00 24 1014.1
20260830155507 88 230 8.7 14.8 0.00 0.00 0.00 24 1014.3
20260830155007 88 234 11.3 18.2 0.00 0.00 0.00 24 1014.2
20260830154006 89 232 8.7 17.4 0.00 0.00 0.00 24 1014.3
20260830153506 89 218 7.0 13.0 0.00 0.00 0.00 24 1014.2
20260830152506 88 209 7.0 14.8 0.00 0.00 0.00 25 1014.2
20260830152007 88 214 6.1 15.6 0.00 0.00 0.00 25 1014.3
20260830151006 87 227 5.2 13.9 0.00 0.00 0.00 25 1014.5
20260830150507 88 230 12.2 17.4 0.00 0.00 0.00 25 1014.6
20260830150007 88 240 7.8 12.2 0.00 0.00 0.00 25 1014.5
20260830145506 88 249 7.0 14.8 0.00 0.00 0.00 26 1014.5
20260830145006 88 231 6.1 12.2 0.00 0.00 0.00 25 1014.5
20260830144507 88 220 7.0 12.2 0.00 0.00 0.00 25 1014.6
20260830144007 88 236 7.8 14.8 0.00 0.00 0.00 25 1014.7
20260830143506 88 237 7.8 13.9 0.00 0.00 0.00 25 1014.8
20260830143007 88 197 6.1 11.3 0.00 0.00 0.00 25 1014.7
20260830142507 87 225 6.1 12.2 0.00 0.00 0.00 26 1015.0
20260830142007 87 245 5.2 11.3 0.00 0.00 0.00 27 1015.0
20260830141506 87 226 8.7 15.6 0.00 0.00 0.00 26 1015.1
20260830141007 88 230 10.4 17.4 0.00 0.00 0.00 26 1015.1
20260830140507 88 237 6.1 13.0 0.00 0.00 0.00 26 1015.0
20260830140007 87 233 5.2 13.0 0.00 0.00 0.00 27 1015.1
20260830135507 87 257 7.8 13.9 0.00 0.00 0.00 27 1015.3
20260830135007 87 202 5.2 12.2 0.00 0.00 0.00 28 1015.3
20260830134507 86 186 6.1 12.2 0.00 0.00 0.00 28 1015.3
20260830134007 87 217 3.5 7.0 0.00 0.00 0.00 28 1015.4
20260830133507 86 230 4.3 10.4 0.00 0.00 0.00 29 1015.5
20260830133007 85 210 9.6 15.6 0.00 0.00 0.00 28 1015.4
20260830132506 86 199 7.8 12.2 0.00 0.00 0.00 29 1015.5
20260830131506 85 243 6.1 13.0 0.00 0.00 0.00 29 1015.6
20260830131006 85 278 5.2 10.4 0.00 0.00 0.00 29 1015.7
20260830130507 85 242 7.0 13.9 0.00 0.00 0.00 28 1015.9
20260830130007 85 203 5.2 14.8 0.00 0.00 0.00 28 1015.8
20260830125506 85 184 6.1 12.2 0.00 0.00 0.00 28 1016.0
20260830125006 85 252 4.3 10.4 0.00 0.00 0.00 29 1015.9
20260830124507 84 268 4.3 10.4 0.00 0.00 0.00 29 1016.0
20260830123506 84 221 4.3 10.4 0.00 0.00 0.00 29 1016.1
20260830123007 84 274 5.2 13.0 0.00 0.00 0.00 29 1016.2
20260830122506 84 224 5.2 13.0 0.00 0.00 0.00 29 1016.3
20260830121507 84 249 3.5 7.8 0.00 0.00 0.00 29 1016.2
20260830121006 83 221 5.2 10.4 0.00 0.00 0.00 29 1016.3
20260830120506 83 207 7.0 11.3 0.00 0.00 0.00 29 1016.3
20260830120007 83 229 6.1 11.3 0.00 0.00 0.00 29 1016.4
20260830115506 83 224 5.2 12.2 0.00 0.00 0.00 30 1016.5
20260830115007 83 221 6.1 12.2 0.00 0.00 0.00 29 1016.5
20260830114507 82 229 7.0 11.3 0.00 0.00 0.00 30 1016.6
20260830114006 82 203 7.0 13.9 0.00 0.00 0.00 29 1016.7
20260830113506 82 209 7.8 13.9 0.00 0.00 0.00 29 1016.7
20260830113007 82 198 7.8 13.0 0.00 0.00 0.00 30 1016.7
20260830112506 82 212 7.8 12.2 0.00 0.00 0.00 31 1016.7
20260830112006 82 257 4.3 12.2 0.00 0.00 0.00 31 1016.7
20260830111506 81 247 4.3 10.4 0.00 0.00 0.00 31 1016.7
20260830110506 81 222 5.2 12.2 0.00 0.00 0.00 32 1016.9
20260830110006 80 249 6.1 13.0 0.00 0.00 0.00 32 1017.0
20260830105507 80 188 6.1 11.3 0.00 0.00 0.00 32 1016.9
20260830105006 80 240 5.2 10.4 0.00 0.00 0.00 33 1017.1
20260830104006 80 204 3.5 6.1 0.00 0.00 0.00 32 1017.1
20260830103506 79 220 3.5 7.0 0.00 0.00 0.00 33 1017.1
20260830103007 79 203 4.3 7.8 0.00 0.00 0.00 32 1017.2
20260830102506 79 190 1.7 4.3 0.00 0.00 0.00 32 1017.2
20260830101006 77 164 2.6 6.1 0.00 0.00 0.00 33 1017.4
20260830100506 77 145 2.6 6.1 0.00 0.00 0.00 33 1017.3
20260830095508 76 194 2.6 5.2 0.00 0.00 0.00 33 1017.4
20260830095008 76 209 1.7 5.2 0.00 0.00 0.00 33 1017.4
20260830094508 76 160 2.6 5.2 0.00 0.00 0.00 34 1017.4
20260830094008 76 201 1.7 4.3 0.00 0.00 0.00 33 1017.3
20260830093008 74 134 1.7 5.2 0.00 0.00 0.00 35 1017.4
20260830092508 74 146 2.6 6.1 0.00 0.00 0.00 35 1017.4
20260830091508 73 169 0.9 2.6 0.00 0.00 0.00 36 1017.4
20260830091008 73 171 1.7 4.3 0.00 0.00 0.00 35 1017.5
20260830090509 73 196 0.9 5.2 0.00 0.00 0.00 35 1017.5
20260830085508 72 230 2.6 4.3 0.00 0.00 0.00 35 1017.4
20260830085009 72 220 0.9 2.6 0.00 0.00 0.00 36 1017.4
20260830084508 72 138 1.7 2.6 0.00 0.00 0.00 36 1017.4
20260830084008 72 125 0.9 2.6 0.00 0.00 0.00 36 1017.3
20260830082008 70 129 1.7 2.6 0.00 0.00 0.00 37 1017.4
20260830081508 70 80 0.9 2.6 0.00 0.00 0.00 38 1017.5
20260830081008 70 150 0.0 1.7 0.00 0.00 0.00 37 1017.5
20260830080508 69 168 0.0 0.9 0.00 0.00 0.00 38 1017.5
20260830080008 69 119 1.7 2.6 0.00 0.00 0.00 38 1017.5
20260830075507 69 120 1.7 2.6 0.00 0.00 0.00 37 1017.4
20260830074508 69 107 1.7 2.6 0.00 0.00 0.00 39 1017.3
20260830074008 69 94 0.9 2.6 0.00 0.00 0.00 39 1017.3
20260830073508 69 16 0.0 0.0 0.00 0.00 0.00 42 1017.3
20260830073008 68 11 0.0 1.7 0.00 0.00 0.00 44 1017.3
20260830072507 67 11 0.0 1.7 0.00 0.00 0.00 45 1017.4
20260830072008 66 11 0.0 0.0 0.00 0.00 0.00 46 1017.4
20260830071508 65 11 0.0 0.0 0.00 0.00 0.00 47 1017.4
20260830071008 64 11 0.0 0.0 0.00 0.00 0.00 49 1017.4
20260830070508 63 11 0.0 0.0 0.00 0.00 0.00 50 1017.3
20260830070008 63 11 0.0 0.0 0.00 0.00 0.00 50 1017.2
20260830065007 62 11 0.0 0.0 0.00 0.00 0.00 51 1017.2
20260830064508 61 11 0.0 0.9 0.00 0.00 0.00 52 1017.1